Location: Unspecified
(0.0000°N, 0.0000°E)
Time: 22:19:30
(UTC+00:00)

USA 72 - Pass Details

Date: 16 October 2024
Orbit: 2592 x 11654 km, 63.4° (Epoch: 10 November)

Event Time Altitude Azimuth Distance (km) Brightness Sun altitude
Rises 19:06:37 0° 316° (NW) 14,834 11.5 -20.0°
Reaches altitude 10° 19:26:38 10° 301° (WNW) 11,836 11.1 -25.0°
Maximum altitude 19:51:00 19° 261° (W) 7,957 10.3 -30.9°
Drops below altitude 10° 20:05:36 10° 217° (SW) 6,798 9.8 -34.5°
Sets 20:12:21 0° 197° (SSW) 7,070 9.8 -36.2°
